STARLINK-35387, 65909

Orbit data source: Space-Track

STARLINK-35387, 65909 is a payload satellite owned by SpaceX/Seattle (US) in LEO that was launched on Tue, 07 Oct 2025 UTC via an FALCON 9 launch vehicle from the Air Force Eastern Test Range (AFETR). Payload-class satellites include a variety of spacecraft equipped with specific instruments for various scientific and technological missions. These include communications satellites like Starlink; space stations such as the ISS; scientific satellites like the Hubble; Earth observation satellites from companies like Planet Labs, Umbra, and HawkEye 360; GPS; miniature CubeSats for education and research; and military/defense satellites.

Loading next visibility...
Identifier
65909, 2025-224AD
Orbit
LEO
Country
Flag of USUS
Related business
Manufacturer
SpaceX/Seattle
Mission
Operational spacecraft
Bus & Motor
STARLINK V2MO, Unknown motor
Mass
575 kg wet, ~530 kg dry
Launch date (UTC)
2025-10-07 (2 months ago)
Launch vehicle
FALCON 9
Launch site
Air Force Eastern Test Range (AFETR)
Object type
Payload
Rocket body
Debris
Shape & HBR
Unknown shape, 17.7 m
Radar Cross Section
RCS unknown

Expand to show TLE details & history
Last TLE update: 1 day ago

TLE from 1 day ago
0 STARLINK-35387
1 65909U 25224AD  25338.61596000  .00057436  00000-0  19369-2 0  9997
2 65909  53.1600  93.2605 0001225 100.4981 259.6158 15.30192613 10260
Epoch: 2025-12-04T14:46Z
TLE epoch observation values (Epoch: 2025-12-04T14:46:58.944Z)
Latitude
0.00002°
Longitude
157.84506°
Altitude
476.288 km
Speed
7.629 km/s
True Right ascension
06h 13m 02s
True Declination
0° 00' 00"
Sunlit
Object was in full shadow at epoch
Visualization orbit readout
Latitude
Unknown
Longitude
Unknown
Altitude
Unknown
Speed
Unknown
Apparent Right ascension
Unknown
Apparent Declination
Unknown
Sunlit
N/A
Visualization observer readout
Local Sidereal Time
12:34:59
Azimuth
Unknown
Elevation
Unknown
Doppler factor
Unknown
Orbital elements
Apogee altitude
476.333 km
Perigee altitude
474.654 km
Semi-major axis
6,853.631 km
Eccentricity
0.00012
Inclination
53.16°
RAAN
93.2605°
Arg. of periapsis
100.4981°
True anomaly
259.60199°
Mean anomaly
259.6158°
Eccentric anomaly
259.6089°
Mean motion
3.82527 °/min
Orbital period
94.11 mins
BSTAR
0.0019369
Loading maneuver chart data...
Computing Atmospheric mass density...
Loading historical data...
Loading historical data...
Loading historical data...
Loading historical data...
Loading historical data...
Loading historical data...
Loading historical data...

Documentation

Showing up to 5 results
|